Location: Waverly
(39.3325°N, 76.6061°W)
Time: 08:33:36
(UTC+00:00)

ARIANE 6 FM1 Upper Stage - Pass Details

Date: 14 December 2025
Orbit: 522 x 610 km, 62.0° (Epoch: 14 January)

Event Time Altitude Azimuth Distance (km) Brightness Sun altitude
Rises 11:18:08 0° 212° (SSW) 2,702 6.0 -11.4°
Reaches altitude 10° 11:20:22 10° 211° (SSW) 1,800 5.1 -11.0°
Maximum altitude 11:24:24 82° 124° (SE) 543 2.6 -10.3°
Drops below altitude 10° 11:28:23 10° 37° (NE) 1,774 5.4 -9.6°
Sets 11:30:33 0° 37° (NE) 2,660 6.3 -9.2°
